This is the latest recevied weather packets stored in our database for station/object N6GPM. If no packets are shown the sender has not sent any weather packets the latest 10 day(s).
| Time | Temp. | Humidity | Pressure | Rain* | Wind** | Luminosity | Snow |
|---|---|---|---|---|---|---|---|
| 1787712779 | 31.11° C | 37% | 1017.8 hPa | 0 mm | - | 0 W/m² | - |
| 1787712474 | 31.11° C | 36% | 1017.7 hPa | 0 mm | - | 0 W/m² | - |
| 1787712169 | 31.67° C | 36% | 1017.9 hPa | 0 mm | - | 0 W/m² | - |
| 1787711868 | 31.67° C | 36% | 1017.5 hPa | 0 mm | - | 1 W/m² | - |
| 1787711564 | 31.67° C | 36% | 1017.6 hPa | 0 mm | - | 1 W/m² | - |
| 1787711260 | 32.22° C | 36% | 1017.3 hPa | 0 mm | - | 4 W/m² | - |
| 1787710956 | 32.22° C | 36% | 1017.4 hPa | 0 mm | - | 6 W/m² | - |
| 1787710652 | 32.22° C | 36% | 1017.2 hPa | 0 mm | - | 11 W/m² | - |
| 1787710352 | 32.78° C | 35% | 1017.2 hPa | 0 mm | - | 15 W/m² | - |
| 1787710047 | 32.78° C | 35% | 1017.4 hPa | 0 mm | - | 21 W/m² | - |
| 1787709743 | 33.33° C | 34% | 1017.2 hPa | 0 mm | - | 26 W/m² | - |
| 1787709438 | 33.33° C | 34% | 1017 hPa | 0 mm | - | 32 W/m² | - |
| 1787709134 | 33.33° C | 34% | 1017.2 hPa | 0 mm | - | 38 W/m² | - |
| 1787708831 | 33.33° C | 34% | 1017 hPa | 0 mm | - | 45 W/m² | - |
| 1787708530 | 33.89° C | 33% | 1017 hPa | 0 mm | - | 53 W/m² | - |
| 1787708225 | 33.89° C | 33% | 1017.3 hPa | 0 mm | - | 61 W/m² | - |
| 1787707921 | 33.89° C | 33% | 1017 hPa | 0 mm | - | 70 W/m² | - |
| 1787707616 | 33.89° C | 32% | 1016.9 hPa | 0 mm | - | 81 W/m² | - |
| 1787707311 | 34.44° C | 32% | 1017 hPa | 0 mm | - | 92 W/m² | - |
| 1787707006 | 34.44° C | 31% | 1016.9 hPa | 0 mm | - | 105 W/m² | - |
| 1787706706 | 34.44° C | 31% | 1016.7 hPa | 0 mm | - | 118 W/m² | - |
| 1787706402 | 35° C | 31% | 1016.8 hPa | 0 mm | - | 136 W/m² | - |
| 1787706097 | 35° C | 29% | 1017 hPa | 0 mm | - | 152 W/m² | - |
| 1787705792 | 35.56° C | 29% | 1016.8 hPa | 0 mm | - | 170 W/m² | - |
| 1787705487 | 35.56° C | 28% | 1016.6 hPa | 0 mm | - | 188 W/m² | - |
* Rain latest hour (hover to see other rain measurements)
** Current wind speed in m/s (hover to see current wind gust speed)